Regional Weather Roundup
Issued by NWS Upton, NY

Current Version | Previous Version | Graphics & Text | Print | Product List | Glossary Off
Versions: 1 2 3 4 5 6 7 8 9 10 11 12 13 14 15 16 17 18 19 20 21 22 23 24 25 26 27 28 29 30 31 32 33 34 35 36 37 38 39 40 41 42 43 44 45 46 47 48 49 50

000
ASUS41 KOKX 240908
RWROKX

REGIONAL WEATHER ROUNDUP
NATIONAL WEATHER SERVICE NEW YORK NY
500 AM EDT THU AUG 24 2017

NOTE: "FAIR" INDICATES FEW OR NO CLOUDS BELOW 12,000 FEET WITH NO
SIGNIFICANT WEATHER AND/OR OBSTRUCTIONS TO VISIBILITY.

NYZ071-072-176-178-NJZ106-104-241000-
NEW YORK CITY METRO AREA

CITY           SKY/WX    TMP DP  RH WIND       PRES   REMARKS
Central Park   CLEAR     67  56  67 CALM      29.92R
Bronx Bot Gard   N/A     64  54  68 CALM      29.90S
LaGuardia APRT PTCLDY    70  57  63 NW9       29.88R
Kennedy INTL   CLEAR     66  59  78 N7        29.89R
Breezy Point     N/A     68 N/A N/A NW7         N/A
Newark/Liberty CLEAR     68  55  63 N8        29.89R
Teterboro      CLEAR     64  56  75 CALM      29.89R
$$

NYZ177-179-078>081-241000-
LONG ISLAND NEW YORK

CITY           SKY/WX    TMP DP  RH WIND       PRES   REMARKS
Jones Beach      N/A     66 N/A N/A E1          N/A
Matinecock PT    N/A     68 N/A N/A NW7         N/A
Farmingdale    CLEAR     63  58  83 CALM      29.89R
MacArthur/ISP  CLEAR     62  60  93 CALM      29.88R
Shirley        CLEAR     59  58  96 CALM      29.89R
Mt Sinai Harb    N/A    N/A N/A N/A MISG        N/A
Westhampton    CLEAR     53  50  89 NW3       29.90R
East Hampton   FAIR      54  53  97 CALM      29.88S
Montauk          N/A     59  57  93 CALM      29.89S
$$

NYZ052-065-067-241000-
HUDSON VALLEY

CITY           SKY/WX    TMP DP  RH WIND       PRES   REMARKS
White Plains   CLEAR     61  55  81 NW5       29.89R
Larchmont Harb   N/A     64 N/A N/A NW3         N/A
Croton On Huds   N/A     61 N/A N/A NE5         N/A
Newburgh       CLEAR     57  57 100 CALM      29.92R
Montgomery     CLEAR     55  53  93 SW5       29.91R
Poughkeepsie   CLEAR     56  53  90 CALM      29.90R
Albany         PTCLDY    58  53  84 NW5       29.91R
$$

NJZ001-105-106-008-010-013-015-019>022-104-241000-
NEW JERSEY

CITY           SKY/WX    TMP DP  RH WIND       PRES   REMARKS
Newark/Liberty CLEAR     68  55  63 N8        29.89R
Teterboro      CLEAR     64  56  75 CALM      29.89R
Caldwell       CLEAR     59  58  96 CALM      29.91R
Somerville     CLEAR     57  56  96 CALM      29.89S FOG
Linden         FAIR      64  57  79 CALM      29.90R
Perth Amboy      N/A     66 N/A N/A NW6         N/A
Sussex         CLEAR     54  54 100 CALM      29.92S
Andover          N/A     56  54  93 CALM      29.93S
Trenton        CLEAR     62  57  83 NW3       29.91R
Millville      CLEAR     59  58  96 W3        29.90R
Atlantic City  CLEAR     63  57  81 CALM      29.89R
Wrightstown    CLEAR     59  57  92 CALM      29.88R
Toms River     CLEAR     56  54  93 CALM      29.90R
Belmar         PTCLDY    61  57  87 NW5       29.91R
$$

PAZ047>061-062-071-241000-
EASTERN PENNSYLVANIA

CITY           SKY/WX    TMP DP  RH WIND       PRES   REMARKS
Philadelphia   PTCLDY    67  55  65 N7        29.91R
Allentown      CLEAR     60  56  86 CALM      29.93R
Scranton       CLEAR     56  54  93 CALM      29.95R
$$

CTZ002-004>006-009-010-012-RIZ004-006-007-MAZ004-011-015-241000-
SOUTHERN NEW ENGLAND
 IN CT

CITY           SKY/WX    TMP DP  RH WIND       PRES   REMARKS
Bradley INTL   CLEAR     56  54  93 W3        29.90R
Hartford       CLEAR     58  57  97 CALM      29.89R
Danbury        CLEAR     56  54  93 CALM      29.92R
Wtrbury/Oxford CLEAR     54  52  93 CALM      29.92R
Norwalk Harbor   N/A     63 N/A N/A NW5         N/A
Bridgeport     CLEAR     62  57  83 N5        29.88S
Meriden        PTCLDY    56  55  97 CALM      29.90R
New Haven      PTCLDY    59  56  89 CALM      29.89R
Chester        FAIR      59  55  88 CALM      29.89S
Groton         CLEAR     59  56  89 N5        29.88R
Wilimantic     MOCLDY    54  54 100 CALM      29.90R

 IN RI

CITY           SKY/WX    TMP DP  RH WIND       PRES   REMARKS
Providence     CLEAR     59  56  89 SW3       29.89R
Block Island   CLEAR     63  57  81 N3        29.88S
Westerly       PTCLDY    56  53  90 CALM      29.89R
 IN MA

CITY           SKY/WX    TMP DP  RH WIND       PRES   REMARKS
Boston         CLEAR     65  52  62 W9        29.88R
Worcester      CLEAR     58  48  69 W8        29.90R
Westfield      CLEAR     51  51 100 CALM      29.89R
Provincetown   CLEAR     65  58  78 NW7       29.87R
Nantucket      CLEAR     64  60  87 NW7       29.86R
$$

ANZ330-335-338-340-345-350-353-355-241000-
COASTAL MARINE OBSERVATIONS


STATION/POSITION TIME  SKY/WX   TEMP    WIND        PRES    VSBY  WAVE
                                AIR SEA DIR/SP/G                  HT/PER
                 (UTC)          (F)     (DEG/KT/KT) (MB)    (MI)  (FT/S)
NY HARB ENTRANCE 0750            74 75  320/  6/  8 1011.2          2/ 6
GREAT SOUTH BAY  0830            70 78  340/  4/  6   N/A
23 SSW MONTAUK P 0750            71 72              1011.7          3/ 6
15 E BARNEGAT LI 0800               76                N/A           3/ 6
HUDSON CANYON    0750            76 76   10/  8/  8 1010.3          3/ 6
KINGS POINT      0830            69 74   40/  2/  5 1011.9
EXECUTION ROCKS  NOT AVBL
WESTERN LI SOUND NOT AVBL
CENTRAL LI SOUND NOT AVBL
EASTERN LI SOUND NOT AVBL
ROBBINS REEF     0830                   310/  8/ 10 1012.7
$$


>>>>>>>>>>>>>>>>>>>>>>>>>>>> KEY <<<<<<<<<<<<<<<<<<<<<<<<<<<
>                                                          <
>     SKY/WX - Sky Condition/Present Weather               <
>     TMP    - Temperature in Fahrenheit                   <
>     DP     - Dew Point in Fahrenheit                     <
>     RH     - Relative Humidity in Percent                <
>     WIND   - Direction (from) and Speed in MPH           <
>     PRES   - Mean Sea Level Pressure (inches of Hg)      <
>     WCI    - Wind Chill Index                            <
>     VSB    - VISIBILITY IN MILES                         <
>     HX     - HEAT INDEX                                  <
>     TC     - TEMPERATURE IN CELSIUS                      <
>     VRB    - VARIABLE WIND DIRECTION                     <
>                                                          <
>>>>>>>>>>>>>>>>>>>>>>>>>>>> KEY <<<<<<<<<<<<<<<<<<<<<<<<<<<



USA.gov is the U.S. government's official web portal to all federal, state and local government web resources and services.